Simultaneous Nadir Overpasses (SNOs) Predictions

Prediction of SNOs between GOES-14 and AQUA Satellite Orbit:

Table of predicted SNOs for the next 14.0 days since TLE Epoch: 11/23/2024
Index Date Time (GOES-14) GOES-14 Lat,Lon AQUA Lat,Lon Distance(km) Time Diff (sec)
1 11/25/2024 09:38:50 0.04,-108.59 0.05,-108.56 3.92 80
2 11/27/2024 21:40:02 -0.05,-108.51 -0.11,-108.79 32.04 80
3 11/29/2024 21:18:47 -0.05,-108.50 0.84,-104.24 484.16 80
4 11/30/2024 09:41:03 0.07,-108.57 0.14,-108.99 47.19 80
5 12/02/2024 09:19:46 0.06,-108.56 -0.80,-104.43 469.11 80
6 12/02/2024 21:42:10 -0.08,-108.48 -0.22,-109.20 81.49 80
7 12/04/2024 21:20:52 -0.08,-108.46 0.77,-104.64 435.30 80
8 12/05/2024 09:43:07 0.10,-108.53 0.28,-109.37 95.64 80
